This is the latest recevied weather packets stored in our database for station/object K0QED. If no packets are shown the sender has not sent any weather packets the latest 10 day(s).
| Time | Temp. | Humidity | Pressure | Rain* | Wind** | Luminosity | Snow |
|---|---|---|---|---|---|---|---|
| 1777701113 | 1.11° C | 54% | 1024.9 hPa | 0 mm | - | 0 W/m² | - |
| 1777700812 | 1.11° C | 54% | 1024.6 hPa | 0 mm | - | 0 W/m² | - |
| 1777700509 | 1.67° C | 55% | 1024.6 hPa | 0 mm | - | 0 W/m² | - |
| 1777700206 | 1.67° C | 54% | 1024.7 hPa | 0 mm | - | 0 W/m² | - |
| 1777699903 | 1.67° C | 52% | 1024.6 hPa | 0 mm | - | 0 W/m² | - |
| 1777699601 | 1.11° C | 55% | 1024.6 hPa | 0 mm | - | 0 W/m² | - |
| 1777699299 | 0.56° C | 58% | 1024.6 hPa | 0 mm | - | 0 W/m² | - |
| 1777698997 | 0.56° C | 57% | 1024.7 hPa | 0 mm | - | 0 W/m² | - |
| 1777698695 | 1.11° C | 55% | 1024.4 hPa | 0 mm | - | 0 W/m² | - |
| 1777698391 | 1.11° C | 54% | 1024.5 hPa | 0 mm | - | 0 W/m² | - |
| 1777698088 | 1.11° C | 54% | 1024.4 hPa | 0 mm | - | 0 W/m² | - |
| 1777697784 | 1.11° C | 53% | 1024.5 hPa | 0 mm | - | 0 W/m² | - |
| 1777697482 | 1.11° C | 53% | 1024.5 hPa | 0 mm | - | 0 W/m² | - |
| 1777697178 | 1.11° C | 53% | 1024.4 hPa | 0 mm | - | 0 W/m² | - |
| 1777696875 | 1.11° C | 55% | 1024.5 hPa | 0 mm | - | 0 W/m² | - |
| 1777696572 | 1.11° C | 50% | 1024.6 hPa | 0 mm | - | 0 W/m² | - |
| 1777696269 | 1.11° C | 51% | 1024.5 hPa | 0 mm | - | 0 W/m² | - |
| 1777695963 | 1.11° C | 49% | 1024.6 hPa | 0 mm | - | 0 W/m² | - |
| 1777695661 | 1.11° C | 49% | 1024.5 hPa | 0 mm | - | 0 W/m² | - |
| 1777695358 | 1.11° C | 50% | 1024.5 hPa | 0 mm | - | 0 W/m² | - |
| 1777695055 | 1.11° C | 49% | 1024.4 hPa | 0 mm | - | 0 W/m² | - |
| 1777694752 | 1.67° C | 52% | 1024.4 hPa | 0 mm | - | 0 W/m² | - |
| 1777694449 | 1.67° C | 47% | 1024.2 hPa | 0 mm | - | 0 W/m² | - |
| 1777694145 | 1.67° C | 48% | 1024.2 hPa | 0 mm | - | 0 W/m² | - |
| 1777693843 | 1.67° C | 47% | 1024.4 hPa | 0 mm | - | 0 W/m² | - |
* Rain latest hour (hover to see other rain measurements)
** Current wind speed in m/s (hover to see current wind gust speed)